Visibility
15.0 15.0 15.0 15.0 15.0 15.0 15.0 15.0 15.0 15.0 15.0 15.0 15.0 15.0 15.0 15.0 15.0 15.0 15.0 15.0 15.0 15.0 15.0 15.0 15.0 15.0 15.0 15.0 15.0 8.2 12.8 9.7 15.0 15.0 15.0 15.0 15.0 15.0 15.0 4.9 14.7 14.2 9.6 1.2
15.0 15.0 15.0 15.0 15.0 15.0 15.0 15.0 15.0 15.0 15.0 15.0 15.0 15.0 15.0 15.0 15.0 15.0 15.0 15.0 15.0 15.0 15.0 15.0 15.0 15.0 15.0 15.0 15.0 8.6 15.0 6.3 4.9 2.8 1.2 5.2 11.2 15.0 15.0 15.0 7.3 15.0 1.6 0.7
15.0 15.0 15.0 15.0 15.0 15.0 15.0 15.0 15.0 15.0 15.0 15.0 15.0 15.0 15.0 15.0 15.0 15.0 15.0 15.0 15.0 15.0 15.0 15.0 15.0 15.0 15.0 15.0 15.0 15.0 10.5 1.4 0.7 3.7 11.8 0.5 0.3 15.0 15.0 15.0 4.6 1.7 4.1 7.1
15.0 15.0 15.0 15.0 15.0 15.0 15.0 15.0 15.0 15.0 15.0 15.0 15.0 15.0 15.0 15.0 15.0 15.0 15.0 15.0 15.0 15.0 15.0 15.0 15.0 15.0 15.0 15.0 15.0 15.0 5.2 5.9 11.4 3.1 7.6 15.0 15.0 15.0 15.0 14.6 15.0 1.9 2.6 5.4
15.0 15.0 15.0 15.0 15.0 15.0 15.0 15.0 15.0 14.8 15.0 15.0 15.0 15.0 15.0 9.5 15.0 10.2 12.2 14.9 15.0 15.0 5.5 15.0 15.0 15.0 15.0 15.0 15.0 15.0 12.4 0.3 3.4 1.9 15.0 15.0 9.5 15.0 15.0 15.0 15.0 13.6 4.6 2.0
15.0 15.0 15.0 15.0 15.0 12.7 0.5 15.0 15.0 15.0 14.4 14.1 6.7 14.8 9.1 11.0 5.9 13.0 15.0 15.0 15.0 8.1 15.0 9.5 5.3 13.7 15.0 15.0 15.0 15.0 2.7 1.9 2.7 5.1 0.3 8.3 1.8 10.9 15.0 15.0 15.0 3.7 0.7 1.2
15.0 15.0 15.0 15.0 12.9 13.4 6.8 9.3 2.4 0.7 6.2 15.0 15.0 14.6 15.0 11.4 15.0 4.9 9.2 15.0 12.7 15.0 15.0 15.0 15.0 15.0 15.0 15.0 15.0 15.0 13.9 3.0 1.5 2.1 1.6 0.6 1.1 15.0 15.0 15.0 15.0 15.0 8.2 3.9
15.0 15.0 15.0 15.0 15.0 15.0 3.5 15.0 2.5 0.7 1.2 13.8 5.6 6.0 15.0 15.0 4.9 0.2 13.5 15.0 15.0 14.4 15.0 1.8 0.1 9.4 15.0 15.0 15.0 9.4 15.0 1.8 1.1 0.2 5.7 1.5 3.7 4.5 0.9 8.7 0.2 14.1 2.6 14.4
15.0 15.0 15.0 15.0 15.0 15.0 15.0 9.7 0.5 0.0 0.1 1.8 11.7 9.9 4.8 3.6 2.6 14.3 13.2 14.2 15.0 5.6 0.2 0.2 0.4 2.6 5.7 3.4 6.2 15.0 8.1 4.5 0.1 0.6 1.2 1.5 2.5 15.0 15.0 14.7 1.1 15.0 8.6 7.2
15.0 15.0 15.0 15.0 15.0 15.0 14.7 12.9 11.3 0.0 1.0 10.7 7.0 0.1 5.6 12.0 10.1 3.6 6.3 15.0 13.8 15.0 0.3 0.2 0.8 3.1 15.0 10.0 5.6 1.0 2.6 1.0 0.2 0.5 2.6 0.2 11.1 15.0 15.0 0.8 0.5 13.6 12.2 5.8
15.0 15.0 15.0 15.0 15.0 13.3 14.6 8.5 10.1 2.3 1.8 1.7 2.9 4.1 1.4 3.0 5.2 0.8 9.4 5.8 12.2 3.5 0.5 1.6 1.5 13.5 2.0 15.0 14.5 13.1 4.1 0.7 0.2 0.4 0.3 0.3 8.1 6.6 1.4 1.4 12.7 14.7 11.7 12.7
15.0 15.0 15.0 15.0 15.0 15.0 15.0 15.0 12.4 3.6 0.1 0.1 1.3 8.9 13.7 8.5 0.7 0.4 0.8 4.0 13.8 0.2 0.4 6.6 7.8 9.9 13.9 7.6 1.2 15.0 0.7 0.5 0.4 0.3 0.2 0.3 0.8 1.5 2.5 8.3 6.9 6.3 9.5 14.1
15.0 15.0 15.0 15.0 15.0 15.0 15.0 4.4 15.0 3.3 0.4 0.1 0.4 3.2 13.5 15.0 8.5 0.3 0.1 1.1 0.6 13.4 7.4 0.4 3.4 5.3 9.1 0.7 1.9 0.3 0.4 0.8 0.3 0.2 0.3 0.3 0.7 10.5 11.7 11.0 7.5 10.1 12.9 14.7
15.0 15.0 15.0 15.0 13.2 15.0 15.0 15.0 15.0 4.4 5.1 3.1 0.3 14.6 9.1 6.5 14.6 0.6 0.4 0.1 13.5 7.1 12.0 10.9 7.2 3.6 15.0 3.7 0.3 0.4 0.8 0.6 0.8 0.8 0.8 1.5 5.2 6.9 5.1 14.3 15.0 14.9 15.0 15.0
15.0 15.0 15.0 15.0 15.0 14.5 15.0 15.0 15.0 12.8 0.2 0.2 6.6 15.0 14.1 7.8 0.8 0.1 0.1 0.6 0.4 1.0 0.6 0.9 0.3 1.6 4.5 1.0 8.7 0.6 0.4 0.3 0.3 0.3 0.4 0.6 1.5 10.7 14.3 6.9 2.7 6.0 5.4 9.0
15.0 15.0 15.0 15.0 13.2 15.0 9.5 0.7 15.0 15.0 3.4 0.1 0.2 7.4 15.0 14.9 8.8 0.9 0.2 0.2 2.4 10.4 13.7 0.7 1.0 0.2 1.3 1.6 1.6 0.4 0.4 0.3 0.4 0.3 0.6 1.4 6.7 13.2 15.0 4.1 2.5 1.0 12.9 9.6
15.0 15.0 15.0 15.0 15.0 15.0 15.0 15.0 15.0 15.0 5.1 0.2 0.2 0.7 12.9 15.0 0.4 15.0 11.8 15.0 6.4 11.4 5.5 0.6 1.0 0.6 12.4 0.7 0.6 0.7 0.3 0.4 0.6 0.8 0.9 0.7 14.0 1.7 14.7 2.2 4.9 4.2 15.0 15.0
8.3 7.8 11.9 15.0 15.0 15.0 13.4 15.0 15.0 15.0 15.0 14.1 0.2 0.5 8.2 15.0 0.7 0.2 15.0 13.9 15.0 15.0 1.4 3.0 1.8 6.7 10.1 0.4 0.3 0.3 0.8 0.9 1.7 0.9 2.9 4.1 5.7 7.9 8.0 9.8 8.3 3.5 7.4 13.2
0.1 8.5 15.0 15.0 15.0 15.0 15.0 15.0 15.0 15.0 12.4 3.2 7.1 0.2 0.2 15.0 11.3 0.3 4.5 10.1 2.8 13.2 4.5 4.4 15.0 7.0 0.3 0.2 0.3 0.6 0.6 0.4 0.6 4.8 1.2 2.7 2.9 4.7 6.9 9.9 14.9 4.5 2.6 6.4
15.0 15.0 15.0 15.0 15.0 15.0 15.0 15.0 15.0 15.0 15.0 15.0 0.5 15.0 0.3 1.9 8.2 0.4 0.5 4.0 0.7 0.8 1.1 15.0 9.5 0.3 0.4 0.6 0.4 0.8 0.8 0.8 1.0 1.7 2.1 3.0 12.7 6.5 3.5 3.9 9.2 7.6 7.7 10.3
15.0 15.0 15.0 15.0 15.0 15.0 15.0 15.0 15.0 15.0 13.1 13.9 14.4 9.7 0.9 15.0 0.3 0.2 0.5 0.4 1.2 0.8 1.5 5.8 2.2 0.8 0.8 2.8 2.0 6.5 4.3 1.8 4.2 7.1 2.9 5.7 7.9 2.7 11.6 12.1 10.6 11.3 14.5 14.7
15.0 15.0 15.0 15.0 15.0 15.0 15.0 15.0 15.0 15.0 1.2 10.6 4.7 8.0 14.2 8.2 3.1 0.3 2.2 0.6 10.9 0.4 10.6 11.3 1.8 0.3 2.5 7.0 2.8 3.4 11.6 13.4 13.0 14.9 13.3 14.8 15.0 13.1 11.1 14.6 15.0 15.0 15.0 15.0
15.0 15.0 15.0 15.0 15.0 15.0 15.0 5.7 14.2 5.1 7.3 5.5 0.8 0.7 5.3 9.3 13.0 2.0 13.1 5.6 0.5 13.2 7.0 1.6 0.8 3.6 10.2 6.5 11.0 14.0 14.9 14.8 15.0 15.0 15.0 15.0 15.0 15.0 14.9 15.0 15.0 15.0 15.0 15.0
15.0 15.0 15.0 15.0 13.9 11.9 4.2 1.2 1.5 7.9 4.5 2.1 2.5 3.1 10.5 15.0 15.0 15.0 13.6 4.3 15.0 13.9 3.9 1.0 2.6 1.0 6.9 11.8 13.2 12.3 14.9 15.0 15.0 15.0 15.0 15.0 15.0 15.0 15.0 15.0 15.0 15.0 15.0 15.0
15.0 15.0 11.9 13.5 8.6 14.9 11.4 11.8 8.7 12.6 11.7 6.0 10.5 12.6 15.0 15.0 15.0 15.0 15.0 15.0 7.0 4.1 1.1 1.9 7.2 6.1 12.1 12.4 12.1 13.0 14.6 13.8 7.4 13.3 5.5 7.7 6.8 6.2 15.0 15.0 15.0 15.0 15.0 15.0
15.0 9.5 15.0 15.0 15.0 15.0 14.6 11.8 11.9 15.0 15.0 15.0 15.0 15.0 15.0 15.0 15.0 15.0 3.7 14.2 1.3 1.5 1.6 5.3 5.6 4.1 7.6 7.5 13.1 14.0 13.5 12.8 13.8 15.0 15.0 15.0 15.0 15.0 15.0 15.0 15.0 15.0 15.0 15.0
15.0 1.1 15.0 14.9 13.9 11.6 15.0 15.0 15.0 15.0 15.0 15.0 15.0 15.0 5.6 15.0 15.0 4.9 6.8 1.2 1.3 3.0 6.6 11.4 10.0 2.2 5.1 5.0 2.9 4.5 11.2 12.1 13.7 15.0 15.0 15.0 15.0 15.0 15.0 15.0 15.0 15.0 15.0 15.0